Location: Allos
(44.2333°N, 6.6333°E)
Time: 12:06:10
(UTC+00:00)

USA 281 - Pass Details

Date: 01 December 2020
Orbit: 1074 x 1084 km, 106.0° (Epoch: 22 January)

Event Time Altitude Azimuth Distance (km) Brightness Sun altitude
Rises 19:03:13 0° 174° (S) 3,868 6.1 -32.9°
Reaches altitude 10° 19:05:51 10° 180° (S) 2,915 5.5 -33.3°
Maximum altitude 19:12:05 46° 252° (WSW) 1,426 4.1 -34.5°
Drops below altitude 10° 19:18:21 10° 325° (NW) 2,926 5.9 -35.6°
Sets 19:21:01 0° 331° (NNW) 3,884 6.5 -36.1°
